Regional Weather Roundup
Issued by NWS

Home | Current Version | Previous Version | Text Only | Print | Product List | Glossary Off
Versions: 1 2 3 4 5 6 7 8 9 10 11 12 13 14 15 16 17 18 19 20 21 22 23 24 25 26 27 28

000
ASUS45 KCYS 050410
RWRWY

WYOMING REGIONAL WEATHER ROUNDUP
NATIONAL WEATHER SERVICE CHEYENNE WY
900 PM MST SUN DEC 04 2016

NOTE:  "FAIR" INDICATES FEW OR NO CLOUDS BELOW 12,000 FEET
WITH NO SIGNIFICANT WEATHER AND/OR OBSTRUCTIONS TO VISIBILITY.

WYZ001-050500-
YELLOWSTONE NATIONAL PARK

CITY           SKY/WX    TMP DP  RH WIND       PRES   REMARKS
LK YELLOWSTONE   N/A     24  23  96 W8        29.56F WCI  15
W YELLOWSTONE  NOT AVBL

$$
WYZ002>013-054>058-071-098>099-050500-
NORTHERN WYOMING

CITY           SKY/WX    TMP DP  RH WIND       PRES   REMARKS
JACKSON        CLOUDY    28  28 100 S30G36    29.60F WCI  13
CODY           LGT SNOW  31  29  92 NE5       29.53S FOG     WCI  26
GREYBULL       FAIR      33  19  56 S3        29.53F
WORLAND        FAIR      26  21  81 CALM      29.52F
SHERIDAN       CLOUDY    32  23  69 CALM      29.50F
BUFFALO        FAIR      39  18  42 SW8       29.50F WCI  33
GILLETTE       CLOUDY    40  22  48 SW15      29.51F WCI  32
HULETT         FAIR      37  25  60 S9        29.53F WCI  31
NEWCASTLE      FAIR      36  21  55 SE9       29.59F WCI  29

$$
WYZ014>020-022>026-101>103-050500-
CENTRAL WYOMING

CITY           SKY/WX    TMP DP  RH WIND       PRES   REMARKS
BIG PINEY      LGT SNOW  29  25  85 W14       29.72F FOG     WCI  18
PINEDALE       LGT SNOW  28  25  86 MISG      29.71S
DUBOIS         LGT SNOW  30  21  69 W24G38    29.52S WCI  16
LANDER         FAIR      36  25  64 SW28G39   29.56F WCI  23
RIVERTON       FAIR      37  20  50 SW20      29.59R WCI  27
CASPER         FAIR      37  20  50 SW22G29   29.60F WCI  26
DOUGLAS        FAIR      42  19  39 W30G37    29.59F

$$
WYZ021-027>030-104>119-050500-
SOUTHERN WYOMING

CITY           SKY/WX    TMP DP  RH WIND       PRES   REMARKS
EVANSTON       CLOUDY    34  24  67 W26G38    29.82F WCI  21
KEMMERER         N/A     32  27  80 SW24G30   29.77F WCI  19
FORT BRIDGER   MOCLDY    35  26  69 W18G25    29.83S WCI  24
ROCK SPRINGS   FAIR      34  22  61 SW26G36   29.76F WCI  21
DIXON          CLOUDY    34  16  46 SW12G21   29.87F WCI  26
RAWLINS        CLOUDY    34  17  50 SW17G36   29.74F WCI  23
SARATOGA       FAIR      34  19  55 SW23G31   29.76F WCI  22
LARAMIE        FAIR      34  16  47 SW30G43   29.74F WCI  20
CHEYENNE       FAIR      41  16  36 SW15      29.71F
TORRINGTON     FAIR      48  18  30 NW24G35   29.62F
PINE BLUFFS    FAIR      37  16  41 SW8       29.74R WCI  31

$$




USA.gov is the U.S. government's official web portal to all federal, state and local government web resources and services.